Location: Ammerl�gen
(47.2167°N, 9.6000°E)
Time: 10:09:39
(UTC+00:00)

ALOS 2 - Pass Details

Date: 21 April 2021
Orbit: 630 x 632 km, 97.9° (Epoch: 06 May)

Event Time Altitude Azimuth Distance (km) Brightness Sun altitude
Exits shadow 22:14:51 35° 32° (NNE) 1,031 3.9 -28.8°
Drops below altitude 10° 22:17:52 10° 359° (N) 2,023 6.0 -29.0°
Sets 22:20:09 0° 353° (N) 2,935 7.2 -29.1°
